This is the latest recevied weather packets stored in our database for station/object OK2ZA-6. If no packets are shown the sender has not sent any weather packets the latest 10 day(s).
| Time | Temp. | Humidity | Pressure | Rain* | Wind** | Luminosity | Snow |
|---|---|---|---|---|---|---|---|
| 1788591004 | 13.89° C | 88% | 1018.1 hPa | 0.51 mm | - | - | - |
| 1788590404 | 13.89° C | 89% | 1017.9 hPa | 0.51 mm | - | - | - |
| 1788589804 | 13.89° C | 88% | 1018.9 hPa | 0.51 mm | - | - | - |
| 1788589204 | 13.89° C | 87% | 1019.2 hPa | 0.51 mm | - | - | - |
| 1788588604 | 13.89° C | 85% | 1019.4 hPa | 0.25 mm | - | - | - |
| 1788588004 | 13.89° C | 84% | 1019.1 hPa | 0.25 mm | - | - | - |
| 1788587404 | 14.44° C | 84% | 1018.9 hPa | 0.25 mm | - | - | - |
| 1788586804 | 15° C | 82% | 1018.8 hPa | 0.25 mm | - | - | - |
| 1788586204 | 15° C | 81% | 1018.9 hPa | 0 mm | - | - | - |
| 1788585604 | 15° C | 83% | 1018.6 hPa | 0 mm | - | - | - |
| 1788585004 | 15° C | 83% | 1017.9 hPa | 0 mm | - | - | - |
| 1788584404 | 15° C | 83% | 1017.8 hPa | 0 mm | - | - | - |
| 1788583804 | 15° C | 82% | 1018.2 hPa | 0 mm | - | - | - |
| 1788583203 | 15° C | 83% | 1018 hPa | 0 mm | - | - | - |
| 1788582604 | 15° C | 83% | 1017.5 hPa | 0 mm | - | - | - |
| 1788582004 | 15.56° C | 82% | 1017.5 hPa | 0 mm | - | - | - |
| 1788581404 | 16.11° C | 80% | 1017.4 hPa | 0 mm | - | - | - |
| 1788580804 | 16.11° C | 80% | 1017.2 hPa | 0 mm | - | - | - |
| 1788580204 | 16.67° C | 78% | 1017.2 hPa | 0 mm | - | - | - |
| 1788579604 | 17.22° C | 75% | 1017.2 hPa | 0 mm | - | - | - |
| 1788579004 | 17.22° C | 75% | 1016.6 hPa | 0 mm | - | - | - |
| 1788578404 | 17.22° C | 74% | 1016.4 hPa | 0 mm | - | - | - |
| 1788577804 | 17.78° C | 72% | 1016.4 hPa | 0 mm | - | - | - |
| 1788577204 | 18.33° C | 70% | 1016.4 hPa | 0 mm | - | - | - |
| 1788576604 | 18.33° C | 69% | 1016 hPa | 0 mm | - | - | - |
* Rain latest hour (hover to see other rain measurements)
** Current wind speed in m/s (hover to see current wind gust speed)